Flag for Germany Past Weather in Heidenheim an der Brenz, Baden-Württemberg, Germany — Yesterday and Last 2 Weeks

Now
55 °F

Partly cloudy.


Feels Like: 55 °F
Forecast: 44 / 70 °F
Wind: 5 mph from Northeast

Location: Laupheim Airport

Current Time: May 25, 2016 at 10:59:56 PM

Latest Report: May 25, 2016 at 10:20 PM


Visibility: N/A

Pressure: 30.01 "Hg

Humidity: 88%

Dew Point: 52 °F

Location of Heidenheim an der BrenzLocation

Past Weather in Heidenheim an der Brenz — Graph

°F

Heidenheim an der Brenz Temperature Yesterday

Maximum temperature yesterday: 52 °F (at 1:20 PM)
Minimum temperature yesterday: 46 °F (at 12:20 AM)
Average temperature yesterday: 49 °F

High & Low Weather Summary for the Past Weeks

 TemperatureHumidityPressure
High81 °F (May 22, 2:20 PM)100% (May 11, 6:20 AM)30.18 "Hg (May 11, 6:20 AM)
Low41 °F (May 15, 4:20 AM)30% (May 22, 5:20 PM)29.45 "Hg (May 13, 12:20 AM)
Average52 °F78%29.89 "Hg
* Reported May 10 9:20 PM — May 25 9:20 PM, Heidenheim an der Brenz, Weather by CustomWeather, © 2016

Note: Actual official high and low records may vary slightly from our data, if they occured in-between our weather recording intervals... More about our weather records

Advertising

Heidenheim an der Brenz Weather History for the Previous 24 Hours

Scroll right to see more
 ConditionsComfort  
Time TempWeatherWind HumidityBarometerVisibility
9:20 PM
Wed, May 25
57 °FBroken clouds.7 mph82%29.98 "HgN/A
8:20 PM59 °FBroken clouds.6 mph72%29.95 "HgN/A
7:20 PM63 °FPartly sunny.6 mph64%29.95 "HgN/A
6:20 PM64 °FPartly sunny.5 mph56%29.95 "HgN/A
5:20 PM64 °FScattered clouds.3 mph56%29.95 "HgN/A
5:00 PM63 °FScattered clouds.5 mph59%29.95 "HgN/A
4:20 PM63 °FScattered clouds.3 mph59%29.95 "HgN/A
3:20 PM61 °FScattered clouds.5 mph63%29.95 "HgN/A
2:20 PM59 °FScattered clouds.5 mph68%29.98 "HgN/A
1:20 PM55 °FPartly sunny.3 mph72%29.98 "HgN/A
12:20 PM55 °FPartly sunny.3 mph72%29.98 "HgN/A
11:20 AM54 °FPartly sunny.5 mph77%29.98 "HgN/A
10:20 AM52 °FPartly sunny.2 mph82%29.98 "HgN/A
9:20 AM50 °FBroken clouds.5 mph82%29.98 "HgN/A
8:20 AM50 °FPartly sunny.2 mph82%29.98 "HgN/A
7:20 AM50 °FPartly sunny.3 mph82%29.95 "Hg5 mi
6:20 AM48 °FPassing clouds.2 mph87%29.95 "Hg4 mi
5:20 AM48 °FPassing clouds.No wind87%29.95 "Hg6 mi
4:20 AM48 °FPassing clouds.5 mph87%29.95 "HgN/A
3:20 AM48 °FPassing clouds.3 mph94%29.95 "HgN/A
2:20 AM48 °FPassing clouds.1 mph94%29.98 "HgN/A
1:20 AM48 °FPassing clouds.1 mph94%29.98 "HgN/A
12:20 AM50 °FPassing clouds.No wind82%29.98 "HgN/A
11:20 PM
Tue, May 24
50 °FPassing clouds.3 mph82%29.98 "HgN/A
10:20 PM50 °FPassing clouds.1 mph88%29.98 "HgN/A
Weather by CustomWeather, © 2016

See weather overviewHow to use our weather pages